Theta_e
329 327 326 324 321 321 320 319 318 318 318 318 319 319 319 320 319 317 316 315 315 314 314 314 315 317 318 318 318 317 316 317 317 317 317 316 316 317 317 318 317 316
329 327 325 323 321 320 320 319 318 317 317 317 318 319 319 319 318 317 316 315 314 314 313 313 314 315 316 316 317 316 315 316 315 315 315 315 315 315 315 316 316 315
327 326 325 323 320 321 322 320 319 318 317 317 317 318 318 319 318 317 316 316 316 316 315 314 314 314 314 315 316 315 315 315 314 313 313 314 314 314 315 314 315 315
325 324 325 322 318 319 321 321 321 319 319 319 317 316 317 318 318 317 317 317 317 318 317 315 314 314 314 314 314 315 314 314 314 313 313 313 314 314 315 314 315 315
323 324 326 323 318 318 320 322 322 319 319 321 319 316 316 317 318 317 317 318 318 318 318 317 316 316 315 315 314 314 314 314 314 314 313 313 314 314 314 314 314 315
325 325 326 324 320 319 320 321 319 316 318 321 320 317 317 317 317 317 317 317 317 317 318 317 317 317 317 316 315 314 314 313 314 314 313 313 313 313 314 314 313 314
326 327 326 325 323 321 321 321 318 317 319 321 321 320 318 317 317 317 317 317 317 317 318 318 317 317 318 318 317 316 315 314 314 314 313 312 312 312 313 313 312 312
327 327 327 326 325 323 323 321 318 319 320 320 321 321 319 318 318 317 317 317 316 317 317 317 317 317 318 318 318 318 317 316 316 315 314 314 314 313 312 312 313 312
327 326 326 327 326 324 323 321 319 318 319 321 321 320 319 319 318 318 318 317 317 317 317 317 317 317 317 318 318 318 318 318 318 317 316 316 315 314 313 313 313 314
326 326 326 326 326 325 323 323 321 317 316 320 322 321 321 320 319 318 318 318 319 319 319 319 319 319 319 319 319 319 318 318 318 318 317 317 317 317 315 315 315 315
325 325 325 326 326 326 324 324 323 321 318 319 321 322 322 321 321 320 320 320 320 320 320 321 320 320 320 320 320 320 319 319 319 318 318 318 318 317 317 316 316 316
325 325 324 325 325 325 325 324 324 324 321 320 320 322 322 323 322 322 321 322 321 321 321 321 321 321 321 321 321 321 320 320 320 319 318 318 318 318 316 316 316 316
325 324 324 324 324 324 324 324 324 324 323 322 320 321 322 323 322 322 322 322 322 322 321 322 322 322 321 321 321 321 321 321 320 318 318 318 319 319 318 317 316 316
325 325 324 324 323 323 323 323 322 323 323 322 322 322 321 322 322 323 323 323 323 323 322 323 323 322 321 321 321 321 321 321 321 320 320 320 321 320 320 319 318 317
325 324 324 324 323 323 323 322 322 323 324 323 324 324 323 322 322 322 323 323 323 323 323 323 322 322 322 321 321 322 322 322 322 322 322 322 322 322 321 320 320 319
324 324 324 323 323 323 322 322 322 323 324 325 325 324 323 322 322 322 323 323 322 322 323 323 323 322 319 317 319 321 322 322 322 322 322 322 322 322 321 321 321 320
323 324 323 323 323 322 322 322 322 323 324 324 324 323 323 323 323 323 323 323 323 322 323 323 323 321 317 315 316 318 320 322 323 322 322 322 322 322 322 321 321 320
322 322 322 322 322 322 322 322 321 322 323 323 323 323 323 323 323 322 322 322 322 322 322 322 322 321 317 316 318 318 319 321 323 323 323 323 322 322 322 321 321 321
321 322 322 322 322 322 321 322 322 322 322 323 323 322 321 322 321 320 321 321 320 320 320 321 321 320 318 317 318 319 319 320 322 322 321 321 321 321 320 320 320 320
316 318 319 320 321 322 321 322 322 322 322 322 321 320 319 320 319 318 318 318 318 319 320 320 321 320 319 318 319 320 319 318 319 320 319 318 318 318 318 318 318 318
311 312 313 315 318 320 321 321 321 321 321 320 319 318 317 316 314 314 314 315 317 319 321 321 320 319 319 319 319 319 316 314 316 317 315 315 316 316 316 317 317 317
310 310 310 312 313 315 317 318 319 319 319 318 317 317 317 315 313 313 314 315 316 318 319 319 319 319 319 319 319 317 314 313 315 315 314 314 315 314 315 315 316 317
309 309 309 310 310 311 312 313 315 316 317 316 316 316 317 316 315 316 315 314 315 316 317 317 318 319 319 319 317 315 314 314 315 314 314 315 314 313 314 314 313 314
309 309 309 310 310 309 310 311 314 315 315 315 314 314 315 314 313 313 313 312 313 313 313 314 314 315 318 318 317 316 315 315 314 314 315 314 313 313 312 311 311 311
309 309 309 310 310 310 311 312 313 313 313 312 312 312 312 311 310 309 309 309 308 305 305 309 308 307 310 314 316 316 316 315 313 314 314 314 313 312 311 309 309 308
307 307 308 309 310 310 311 311 311 312 311 311 310 309 309 308 307 308 308 308 306 302 303 307 307 303 302 306 309 313 315 315 313 313 314 314 312 311 310 308 307 306
Wind_Speed
10 10 11 10 11 12 12 12 12 12 11 11 11 10 9 8 8 9 10 10 10 11 10 10 9 7 7 7 7 7 8 8 8 7 7 7 7 7 7 7 6 6
10 10 10 10 10 12 13 13 14 13 12 12 12 12 11 10 9 9 10 11 11 11 10 10 9 8 7 7 7 7 7 7 7 7 7 7 7 7 7 7 6 6
10 10 11 11 12 12 13 13 14 13 13 14 14 14 12 11 10 9 10 10 10 10 10 10 9 9 8 8 7 8 7 7 7 7 7 7 7 7 7 6 6 6
11 11 11 12 13 14 13 12 13 13 13 13 15 16 14 12 11 10 10 9 10 10 9 9 9 9 9 8 8 8 7 7 7 6 7 7 6 6 6 6 6 6
12 12 12 13 14 15 13 11 12 15 13 11 13 16 15 13 12 11 10 9 9 9 9 9 9 8 8 8 7 7 7 6 6 6 6 6 6 6 6 6 6 6
10 11 12 13 14 14 13 10 11 14 12 10 11 13 14 14 13 11 11 10 9 9 9 9 8 8 8 7 7 6 6 6 5 5 5 5 5 5 5 4 4 5
10 11 11 12 14 14 12 11 11 11 10 9 9 11 13 14 14 12 11 10 10 10 9 9 8 8 7 7 7 7 6 6 5 4 4 4 4 4 3 3 3 4
8 9 10 11 13 14 13 12 11 11 10 9 9 10 12 13 14 13 12 11 11 10 9 9 8 8 7 6 7 7 6 6 5 4 4 4 3 2 2 2 2 2
7 8 9 10 12 13 13 13 13 12 11 10 9 10 11 12 13 14 13 12 12 11 10 9 8 8 7 7 6 6 6 5 5 4 4 4 3 2 2 2 1 1
7 8 9 10 11 13 13 13 13 13 12 11 10 9 10 11 13 14 14 13 12 12 12 10 9 8 7 7 6 5 5 5 5 4 3 3 2 2 1 1 1 1
8 9 10 10 10 11 13 13 12 12 13 12 11 10 11 11 12 13 13 13 13 13 13 12 11 10 8 7 6 5 5 5 5 4 3 3 3 2 2 2 2 2
8 9 10 10 9 10 12 13 12 12 13 12 12 12 12 12 12 13 13 13 13 13 13 13 12 11 10 8 7 6 6 5 6 5 5 5 5 5 5 4 4 4
10 10 11 11 10 9 10 12 12 13 13 13 13 14 14 13 13 13 13 12 12 12 12 12 12 12 11 9 8 7 6 6 6 7 7 7 7 6 6 7 8 7
9 9 10 10 11 11 11 11 12 13 14 14 14 15 15 14 13 13 12 12 11 11 11 11 11 10 10 9 8 8 7 6 7 7 7 7 8 7 8 9 10 10
6 6 7 8 9 11 11 12 13 14 14 14 14 14 13 13 13 12 12 12 11 10 10 11 10 10 9 9 8 8 8 7 7 7 7 7 7 8 8 9 11 11
4 4 5 6 7 8 9 10 11 12 12 13 13 12 12 11 11 11 11 11 11 10 10 10 9 10 11 11 9 9 9 8 7 7 7 7 7 8 8 9 10 10
3 3 3 4 5 6 7 8 9 10 10 11 11 11 11 10 10 10 9 9 9 9 8 8 8 10 13 14 12 12 10 8 7 7 6 6 7 7 7 8 8 8
2 2 2 3 4 5 6 7 7 8 8 8 9 10 10 8 7 7 6 6 7 8 8 8 8 10 12 12 12 12 11 10 7 6 6 5 6 6 6 6 6 7
2 1 1 1 3 4 5 5 6 6 6 6 7 8 8 7 6 5 6 8 9 10 10 9 10 12 12 11 12 12 11 10 7 5 5 4 4 4 5 5 5 6
2 2 1 0 1 3 5 6 6 6 6 7 8 9 9 9 8 7 9 11 10 10 9 8 11 12 11 11 11 11 11 10 7 5 4 3 2 2 3 3 4 5
3 2 1 0 1 2 4 5 6 6 7 8 9 10 9 8 7 8 9 10 9 9 8 8 11 11 11 12 12 12 12 10 7 4 3 3 2 1 1 2 2 3
2 2 1 0 1 2 4 5 5 6 7 8 8 8 8 9 8 8 9 9 8 9 10 10 10 11 12 13 13 13 12 9 6 5 4 4 3 2 1 1 0 1
3 3 3 3 3 4 5 5 6 7 7 8 9 9 9 10 10 9 10 11 10 10 10 8 8 11 13 13 13 13 12 8 6 6 5 4 4 3 3 2 2 2
4 4 5 5 6 7 6 6 6 7 8 9 10 10 11 11 12 12 11 11 10 9 8 6 7 10 12 13 13 14 13 9 7 7 6 5 5 5 4 3 3 3
6 6 6 6 6 7 7 6 6 7 9 10 10 10 11 11 11 11 11 10 9 9 8 7 6 8 10 11 12 13 13 10 7 6 7 6 6 7 6 6 5 5
6 6 7 7 7 6 6 6 6 7 9 11 10 10 11 12 11 11 11 11 11 11 10 8 7 7 8 9 10 11 13 11 8 7 7 7 7 8 8 8 7 7
Wind_Direction
150 147 142 140 142 142 144 144 142 141 137 136 136 131 124 115 107 102 97 94 91 87 84 81 81 80 76 68 61 68 72 67 64 62 62 65 65 63 58 54 54 58
151 144 141 140 144 147 151 151 146 142 140 139 137 134 131 126 120 116 111 107 101 96 92 89 88 86 84 82 77 78 77 71 66 63 64 68 71 73 67 63 62 59
163 154 150 149 150 154 158 158 150 145 145 144 140 137 138 136 132 129 123 118 111 105 100 96 94 92 91 92 89 89 86 79 72 67 69 69 71 74 70 67 66 63
178 170 165 160 160 161 164 165 158 152 152 152 145 140 142 143 140 138 133 126 119 113 108 104 101 98 98 98 96 97 95 90 85 79 77 75 73 73 70 67 65 62
187 178 171 167 168 167 168 173 168 159 157 159 150 142 143 146 144 143 141 135 129 123 119 115 110 106 104 102 101 102 101 98 95 92 90 88 84 79 74 72 68 62
186 180 175 172 172 171 172 173 170 164 162 164 156 148 148 149 147 147 146 143 140 136 133 129 123 119 116 113 110 109 107 104 102 102 100 96 97 94 88 86 81 73
184 180 178 176 174 173 173 171 170 170 171 171 163 156 156 152 149 149 150 148 146 143 141 140 135 131 128 125 123 119 116 113 114 115 108 102 104 108 104 97 96 93
184 182 183 180 176 175 174 172 173 174 178 180 173 167 164 157 152 151 152 152 150 147 146 145 143 141 138 135 134 130 129 128 126 125 118 111 112 122 119 105 102 110
189 190 190 184 182 181 178 175 177 179 180 182 180 174 169 163 157 156 157 157 153 149 149 149 149 148 146 145 144 143 144 141 137 134 130 127 131 146 147 129 122 120
203 201 196 192 189 188 185 180 181 185 185 184 185 181 176 171 165 161 162 163 160 158 157 156 156 154 153 151 150 152 154 151 150 152 154 158 156 157 158 170 238 235
206 207 204 199 196 195 193 187 184 188 190 191 191 189 184 180 174 170 171 172 171 170 166 164 163 161 160 159 160 165 169 171 173 174 180 188 187 195 218 241 266 270
198 205 204 198 198 201 199 196 196 197 197 197 197 198 196 192 187 183 182 183 183 181 177 173 172 172 173 172 174 183 191 198 201 206 212 210 208 214 219 225 233 245
196 202 203 201 203 206 206 208 210 211 209 205 202 203 203 202 201 198 195 194 193 192 190 183 178 180 180 179 183 191 202 214 221 229 229 221 217 217 219 229 234 232
193 199 204 207 210 213 217 223 227 228 223 215 209 207 208 209 210 209 205 203 199 196 195 188 184 188 191 193 198 199 204 216 224 226 224 221 224 225 225 232 234 229
169 178 195 206 211 216 219 224 230 230 226 220 214 210 211 212 214 216 215 212 207 201 196 192 191 192 193 198 201 200 203 211 215 215 218 222 226 229 228 229 230 228
143 156 183 199 209 217 219 221 222 221 220 221 219 216 217 217 217 220 220 219 216 209 201 198 199 207 217 223 216 203 200 204 208 212 217 223 228 233 235 232 232 232
134 153 179 195 205 214 220 224 222 216 218 222 222 223 224 222 222 221 221 224 225 223 221 219 221 232 241 238 223 209 203 202 210 215 214 221 228 232 235 235 237 236
131 163 193 207 212 216 219 223 223 219 220 222 226 231 232 231 229 220 216 224 229 235 242 243 241 239 234 226 218 215 208 201 203 206 203 212 223 228 234 234 234 232
106 128 177 215 222 222 221 220 222 222 221 221 228 231 230 235 238 220 219 233 239 242 244 242 239 236 227 221 221 217 202 188 185 189 193 207 219 227 238 237 230 227
74 84 93 143 206 219 222 222 223 218 210 214 226 232 231 236 240 229 229 239 247 250 245 233 230 231 225 216 209 197 183 173 169 176 190 200 209 228 253 259 254 247
44 50 56 88 206 218 223 226 223 213 208 216 227 230 226 221 218 213 217 230 243 246 234 223 222 217 204 193 186 177 169 163 159 168 179 173 164 176 249 262 263 257
354 4 16 183 205 219 224 225 219 209 206 208 209 206 197 189 191 198 205 214 227 229 219 215 211 195 182 181 179 173 169 166 164 169 165 148 136 122 112 136 161 215
316 298 274 256 250 247 240 234 224 213 203 193 188 186 180 175 176 180 182 182 188 199 201 198 192 184 181 183 184 180 178 179 181 179 167 150 142 127 110 127 155 149
316 304 290 280 269 260 257 248 226 208 193 182 177 173 169 166 164 163 164 164 167 178 186 180 179 184 185 187 190 188 186 189 195 187 172 158 149 137 118 123 147 145
309 304 300 292 278 268 266 253 221 193 181 177 177 174 168 166 166 164 161 159 159 165 168 164 173 188 191 192 195 196 193 197 209 200 183 175 163 146 127 120 125 133
308 304 302 298 289 282 273 252 224 201 188 185 190 190 180 175 174 171 163 157 157 158 156 155 164 181 191 197 202 204 200 201 212 211 192 183 172 155 139 127 122 124